Погода в Уиле

Погода в Уиле : погода сейчас, прогноз погоды и архив. Всё, что Вы хотите узнать о погоде в Уиле!

Хотите узнать прогноз погоды в Уиле? Тогда Вам сюда: Погода в Уиле

Поиск расширенной информации на нашем сайте:

Другие новости

Новости СМИ2

Главная страница сайта

Новости сайта

02.10.2013

Напоминаем, что на нашем новом сайте вы можете получить высокодетализированные прогнозы погоды по пунктам России, СНГ и мира (включающие важные для авиации метеовеличины, такие как направление и скорость ветра, видимость, явления погоды, количество и форма облачности, нижняя и верхняя граница облачности), а также ознакомиться с разнообразными материалами по авиационной метеорологии и подборкой полезных ссылок на эту тему.

Сайт Метеоцентр.Азия посвящён разработке технологий оптимизации авиаметеорологического обслуживания, включая проектирование и перспективное создание нескольких автоматизированных авиаметеорологических систем:
- система выпуска высокодетальных прогностических карт явлений погоды для нижнего воздушного пространства по России и ближнему зарубежью;
- система верификации прогнозов TAF (выпускаемых синоптиками официальных АМСГ РФ и ближнего зарубежья) и AUTOTAF (выпускаемых сайтом Метеоцентр.Азия) - выявление ошибок, онлайн-сопоставление с фактической погодой METAR, автоматическое внесение коррективов в прогнозы при резком отклонении фактической погоды от прогноза, подсчёт оправдываемости прогнозов по элементам и в целом;
- система обработки, анализа и отображения авиаметеорологической информации для применения провайдерами метеорологической информации.

Рекомендуем: Интернет магазин нижнего белья felina здесь

Погода в Уиле - сегодня

Время (UTC), дата Ветер
(°,м/с) 
Видим.   Явления Облачность Т
(°С)
Тd
(°С)
f(%) Тe
(°С)
Pmin
(гПа)
dP
(гПа)
Po
(мм)
O2
(г/м3)
Тmin Tmax R s Состояние
почвы
00 22.03.17 080 (В) 10{20}  н/о  {снег, дождь} [диам. гололёда 3 мм]  10/10 600 м 
[Sc]
-1.4 -2.2 94 -7  1013.3  751  304           
03 22.03.17 080 (В) 8{15}  10 км  [диам. гололёда 3 мм]  10/10 600 м 
[Sc]
-1.7 -2.5 94 -6  1014.4  1.1  752  305      0.8    мокрый или
старый снег
50-90% 
06 22.03.17 070 (В) 10 км  [диам. гололёда 3 мм]  10/10 600 м 
[St]
-0.6 -1.8 92 -4  1016.5  2.1  753  304  -2.5    0.8     
09 22.03.17 090 (В) 4000 м  дымка [диам. гололёда 2 мм]  10/10 600 м 
[St]
+0 -0.8 94 -3  1017.8  1.3  754  304           
12 22.03.17 110 (В) 10 км    10/10 600 м 
[St]
+0.8 -0.6 90 -3  1019.1  1.3  755  303           
15 22.03.17 100 (В) 10 км    10/10 600 м 
[Sc]
+0.9 -0.2 92 -1  1020.4  1.3  756  304    +1.2       
18 22.03.17 070 (В) н/о    8/8 600 м 
[Sc]
+0.9 -0.5 90 1022  1.7  758  304    +1.2       
21 22.03.17 100 (В) н/о    10/10 600 м 
[Sc]
+1 -0.1 92 1023.1  758  304           
00 23.03.17 150 (ЮВ) н/о    9/9 600 м 
[Sc]
+0.9 -0.5 90 +2  1023.9  0.8  759  305           
03 23.03.17 120 (ЮВ) 10 км    9/9 600 м 
[Sc]
+0.3 -0.9 92 +1  1024.8  0.9  760  306          мокрый или
старый снег
50-90% 
06 23.03.17 050 (СВ) 10 км    6/0 верхняя 
[Cs]
+3.2 +0.8 84 +4  1025.4  0.6  760  303  +0.3         
09 23.03.17 010 (С) 10 км    9/9 1000 м 
[Sc]
+5 +0.8 74 +5  1025.5  0.3  760  301           
12 23.03.17 270 (З) 10 км    10/10 1000 м 
[Sc]
+5.2 +0.5 72 +5  1025.4  -0.2  760  300           
15 23.03.17 350 (С) 10 км    9/9 1000 м 
[Sc]
+3 +0.3 82 +4  1025.6  0.2  760  303    +5.8       
18 23.03.17 тихо ()   н/о    9/9 600 м 
[Sc]
+2 -0.2 85 +2  1025.9  0.2  760  304    +5.8       
21 23.03.17 220 (ЮЗ) н/о    3/3 600 м 
[Sc]
-1 -2.3 91 -2  1025.6  -0.4  760  308           
00 24.03.17 220 (ЮЗ) н/о    10/10 600 м 
[Sc]
+0.4 -1.2 89 -1  1025.5  760  306           
03 24.03.17 180 (Ю) 10 км    10/10 600 м 
[Sc]
+1.2 -1.1 85 +1  1025.6  760  305          мокрый или
старый снег
50-90% 
06 24.03.17 220 (ЮЗ) 10 км    9/9 1000 м 
[Sc]
+3.3 -0.2 78 +1  1024.9  -0.5  760  302  -1.4         
09 24.03.17 230 (ЮЗ) 10 км    9/9 1000 м 
[Sc]
+5.7 +2.2 78 +4  1024.4  -0.4  759  299           
12 24.03.17 300 (СЗ) 10 км    9/9 1000 м 
[Sc]
+3.4 -0.7 74 +1  1024.5  759  302           
15 24.03.17 310 (СЗ) 10 км    9/9 1000 м 
[Sc]
+1.7 -0.8 83 1024.8  0.2  760  304    +6.9       
18 24.03.17 250 (З) н/о    10/10 1000 м 
[Sc]
+1.1 -0.3 90 +2  1025.2  0.4  760  305    +6.9       
21 24.03.17 220 (ЮЗ) н/о    10/10 1000 м 
[Sc]
+1 -0.4 90 1025.2  760  305           
00 25.03.17 120 (ЮВ) н/о    10/10 1000 м 
[Sc]
+0.4 -0.2 96 +1  1023.9  -1.4  759  305           
Время (UTC), дата Ветер
(°,м/с) 
Видим.   Явления Облачность Т
(°С)
Тd
(°С)
f(%) Тe
(°С)
Pmin
(гПа)
dP
(гПа)
Po
(мм)
O2
(г/м3)
Тmin Tmax R s Состояние
почвы

Для получения пояснительной информации подведите курсор к названию столбца.

ПОГОДА в Уиле - архив

Всё, что Вы хотите узнать о погоде в Уиле - удобно и подробно!

Выберите нужную дату (начиная с 1 января 2015* года) и нажмите кнопку "Найти".
Будут отображены архивные сводки погоды по пункту Уил, начиная с указанной даты.


Отображать данные в формате CSV (для использования в таблицах Excel)


Внимание! Наш архив погоды предназначен исключительно для личного некоммерческого использования в познавательных целях. Если Вам необходимы официальные справки о состоянии погоды (для производственных, юридических, коммерческих и т.п. целей), обращайтесь в органы Росгидромета.

*Примечание: данная дата относится к архиву по метеостанциям СССР (Россия, СНГ, Балтия).
Архив по метеостанциям Зарубежной Европы и Азии (кроме Китая) хранится 10 дней, по другим регионам земного шара (Китай, Африка, Америка, Австралия, Океания) - 1 день.

Уил - район местоположения метеостанции


Название, широта, долгота, высота метеостанции:
Уил 49.1°ш. 54.7°д. 128 м над ур. моря [Казахстан]

Дополнительная информация

В oтличие oт бoльшинства пoгoдных сайтoв мы публикуем пoдрoбную метеoинфoрмацию в детальнoм прoфессиoнальнoм фoрмате.

Характеристики температуры и влажнoсти вoздуха измеряются на высoте 2 м в тени вдали oт зданий и деревьев.
Скoрoсть ветра измеряется на высoте 10 м (на урoвне рoста челoвека скoрoсть ветра ниже в 1.5-2 раза). Если метеoстанция нахoдится в гoрoде или в лесу, тo скoрoсть ветра занижена на 2-4 м/с пo сравнению с oткрытым местoм. Скoрoсть ветра над акватoриями крупных рек и oзёр, а также на вершинах хoлмoв на 2-5 м/с выше, чем в oбычных услoвиях.
Атмoсфернoе давление в разных тoчках местнoсти мoжет значительнo oтличаться oт давления на метеoстанции, в зависимoсти oт услoвий рельефа (при пoдъёме на 10 м давление пoнижается примернo на 1 мм рт.ст.).